Torna al catalogo

CZ-6A DEB

AttivoPO
NORAD 61338·DEBRIS·🇨🇳 China

Lanciato Aug 6, 2024 da Taiyuan Satellite Launch Center

Loading…

Prossimi Passaggi (prossime 24 ore)

TLE

AggiornatoSource: Space-Track

Epoca: Sep 14, 2026, 11:20 UTC

1 61338U 24140VB  26257.47249038  .00003026  00000-0  14238-2 0  9992
2 61338  88.9896 264.6686 0082028 287.9385  71.2874 14.18022188104774

Traccia CZ-6A DEB in tempo reale con AllMySat

Download on the App Store